[[{"header":{"parameterUnit":"m.s-1","parameterCategory":1,"la1":30.2991,"la2":30.254,"lo1":-89.0895,"lo2":-89.0444,"dy":0.0017,"dx":0.0017,"nx":28,"ny":28,"refTime":"2023-10-23T21:00:00:Z","depth":0,"parameterNumber":2,"parameterNumberName":"U-component_of_WINDS"},"data":[0,0,0,0,0,0,0,0,0,0,0,0,0,0,0,0,0,0,0,0,0,0,0,0,0,0,0,0,0,0,0,0,0,0,0,0,0,0,0,0,0,0,0,0,0,0,0,0,0,0,0,0,0,0,0,0,0,0,-2.5601,-2.5601,0,-2.561,-2.561,-2.561,-2.5568,-2.5567,-2.5566,-2.5564,-2.5576,-2.5577,-2.5579,0,0,0,0,0,0,0,0,0,0,0,0,0,-2.5552,-2.5553,-2.5601,-2.5601,-2.5601,-2.561,-2.561,-2.561,-2.5568,-2.5567,-2.5565,-2.5564,-2.5575,-2.5577,-2.5579,0,0,0,0,0,0,0,0,0,0,0,0,0,-2.5569,-2.5554,-2.5601,-2.5581,-2.5579,-2.561,-2.561,-2.561,-2.5569,-2.5567,-2.5565,-2.5563,-2.5575,-2.5577,-2.5579,-2.5629,0,0,-2.5586,-2.5587,0,0,0,0,0,0,0,0,-2.5568,-2.557,-2.5584,-2.5583,-2.5581,-2.5586,-2.5597,-2.5617,-2.5569,-2.5573,-2.5564,-2.5562,-2.5581,-2.5582,-2.5588,-2.563,-2.563,-2.5586,-2.5587,-2.5588,-2.5589,0,0,0,0,0,0,0,-2.5567,-2.557,-2.5604,-2.5584,-2.5582,-2.5574,-2.5574,-2.56,-2.5587,-2.5572,-2.5569,-2.5571,-2.558,-2.5586,-2.5588,-2.563,-2.5586,-2.5588,-2.5589,-2.559,-2.5717,-2.5719,0,0,0,0,0,0,-2.5568,-2.5569,-2.5604,-2.5605,-2.557,-2.5576,-2.5576,-2.5586,-2.5587,-2.5585,-2.5572,-2.5569,-2.5583,-2.5586,-2.5588,-2.5648,-2.5588,-2.559,-2.5591,-2.5715,-2.5717,-2.572,0,0,0,0,0,0,-2.5567,-2.5571,-2.5604,-2.5586,-2.559,-2.5579,-2.559,-2.5587,-2.5594,-2.5587,-2.5584,-2.5581,-2.5582,-2.5585,-2.562,-2.5648,-2.5591,-2.5593,-2.5712,-2.5716,-2.5719,-2.5768,0,0,0,0,0,0,-2.5565,-2.5571,-2.5588,-2.5587,-2.5591,-2.5634,-2.5592,-2.5589,-2.5597,-2.5593,-2.5594,-2.5593,-2.5581,-2.5617,-2.5622,-2.565,-2.5595,-2.571,-2.5714,-2.5718,-2.5763,-2.5772,-2.5779,0,0,0,0,0,-2.5564,-2.5602,-2.5589,-2.5594,-2.5612,-2.5635,-2.5638,-2.5622,-2.56,-2.5618,-2.5614,-2.5593,-2.5645,-2.5621,-2.5626,-2.5655,-2.5708,-2.5713,-2.5717,-2.576,-2.577,-2.5779,0,0,0,0,0,0,-2.5607,-2.5601,-2.5587,-2.5626,-2.5631,-2.5628,-2.565,-2.5634,-2.5646,-2.5641,-2.5623,-2.5624,-2.5662,-2.5662,-2.5636,-2.5705,-2.5673,-2.5679,-2.5703,-2.5713,-2.5721,-2.5719,-2.5597,0,0,0,0,0,-2.5621,-2.5639,-2.5634,-2.5668,-2.5672,-2.5661,-2.567,-2.5659,-2.5664,-2.5666,-2.5664,-2.5672,-2.569,-2.5702,-2.5718,-2.5764,-2.5765,-2.5787,-2.5795,-2.5802,-2.5807,-2.5834,-2.5844,-2.5735,-2.5735,-2.5735,0,0,-2.565,-2.5649,-2.5661,-2.5677,-2.5679,-2.57,-2.5663,-2.5686,-2.5701,-2.567,-2.5702,-2.5702,-2.5709,-2.575,-2.5768,-2.5752,-2.5838,-2.5808,-2.5813,-2.5814,-2.5839,-2.585,-2.5859,-2.5738,-2.5738,-2.5737,0,0,-2.5712,-2.5713,-2.5743,-2.5747,-2.5752,-2.5746,-2.5753,-2.5753,-2.5752,-2.5784,-2.5762,-2.5782,-2.5812,-2.5819,-2.5826,-2.5896,-2.5878,-2.5903,-2.5943,-2.597,-2.5978,-2.5986,-2.6011,-2.6021,-2.5908,-2.5908,-2.5908,0,-2.5747,-2.5776,-2.576,-2.5785,-2.5793,-2.5767,-2.5798,-2.5803,-2.5814,-2.5821,-2.5803,-2.5843,-2.5846,-2.5889,-2.5906,-2.5913,-2.5922,-2.5901,-2.5978,-2.5986,-2.5992,-2.6017,-2.6026,-2.5911,-2.5911,-2.591,-2.591,0,-2.5819,-2.584,-2.5864,-2.5875,-2.5886,-2.5914,-2.5904,-2.5918,-2.5907,-2.5903,-2.5938,-2.5941,-2.5958,-2.5969,-2.5957,-2.6011,-2.6001,-2.5981,-2.5947,-2.6006,-2.6028,-2.6037,-2.5915,-2.5914,-2.5913,-2.5912,0,0,-2.5905,-2.591,-2.5918,-2.5924,-2.593,-2.5947,-2.5975,-2.5992,-2.6005,-2.6015,-2.6039,-2.6068,-2.605,-2.6059,-2.6049,-2.6072,-2.6129,-2.605,-2.605,-2.6064,-2.619,-2.6205,-2.6215,-2.6118,-2.612,-2.6121,-2.619,0,-2.5966,-2.6013,-2.6001,-2.6048,-2.6068,-2.6046,-2.6071,-2.6079,-2.6077,-2.6096,-2.6095,-2.6116,-2.609,-2.6096,-2.6118,-2.6117,-2.6154,-2.6113,-2.6141,-2.6142,-2.6138,-2.6227,-2.6241,-2.6305,-2.6199,-2.62,-2.6201,0,-2.6042,-2.6055,-2.6104,-2.611,-2.6118,-2.614,-2.6156,-2.6174,-2.6183,-2.6181,-2.6193,-2.618,-2.621,-2.6178,-2.6221,-2.6193,-2.6205,-2.6207,-2.621,-2.621,-2.6174,-2.6229,-2.6325,-2.6335,-2.6215,-2.6214,-2.6213,0,-2.61,-2.613,-2.6164,-2.6169,-2.6176,-2.6193,-2.6197,-2.6205,-2.6217,-2.6232,-2.624,-2.6259,-2.6269,-2.6285,-2.6278,-2.6256,-2.6323,-2.629,-2.6323,-2.6323,-2.6336,-2.6335,-2.6434,-2.6346,-2.6346,-2.6346,-2.6345,0,-2.6168,-2.6199,-2.619,-2.621,-2.6245,-2.6234,-2.6269,-2.6271,-2.6279,-2.6301,-2.6284,-2.6306,-2.6296,-2.6318,-2.6313,-2.635,-2.6355,-2.6355,-2.6353,-2.6356,-2.6356,-2.6361,-2.6356,-2.6348,-2.6348,-2.6347,-2.6347,0,-2.6237,-2.6232,-2.6267,-2.6272,-2.6274,-2.63,-2.6305,-2.6325,-2.6324,-2.6352,-2.6359,-2.6357,-2.6382,-2.6378,-2.6405,-2.6402,-2.6449,-2.6442,-2.6445,-2.6443,-2.6475,-2.6472,-2.6581,-2.6595,-2.6499,-2.65,-2.65,0,-2.628,-2.6303,-2.6311,-2.6324,-2.633,-2.6351,-2.6364,-2.6355,-2.6369,-2.6385,-2.6404,-2.6427,-2.6445,-2.6487,-2.6489,-2.6511,-2.6504,-2.6541,-2.6507,-2.651,-2.6504,-2.6502,-2.6505,-2.6547,-2.6548,-2.6549,-2.655,0,-2.6357,-2.6354,-2.6372,-2.639,-2.6406,-2.642,-2.6432,-2.6445,-2.6438,-2.6455,-2.648,-2.6495,-2.6524,-2.6548,-2.657,-2.6576,-2.6562,-2.6561,-2.657,-2.6571,-2.6572,-2.6572,-2.6462,-2.6558,-2.6557,-2.6556,-2.6556,-2.6555,-2.6413,-2.6434,-2.6443,-2.6465,-2.6474,-2.6487,-2.6507,-2.6509,-2.653,-2.6552,-2.6547,-2.6576,-2.6589,-2.6616,-2.6625,-2.6649,-2.6636,-2.6648,-2.6651,-2.6654,-2.6658,-2.657,-2.6653,-2.6653,-2.6653,-2.6653,-2.6653,0,-2.6489,-2.6495,-2.6515,-2.6533,-2.6551,-2.6538,-2.6553,-2.6569,-2.6594,-2.6607,-2.6626,-2.6657,-2.6681,-2.6687,-2.6711,-2.6729,-2.6724,-2.6736,-2.6734,-2.6736,-2.6668,-2.6658,-2.674,-2.674,-2.674,-2.674,-2.674,-2.674,-2.653,-2.6564,-2.6563,-2.6603,-2.6609,-2.6637,-2.6647,-2.666,-2.667,-2.6705,-2.6725,-2.6729,-2.674,-2.6765,-2.6788,-2.679,-2.6799,-2.6813,-2.6812,-2.6749,-2.674,-2.6732,-2.6722,-2.6816,-2.6816,-2.6878,-2.6878,-2.6879]},{"header":{"parameterUnit":"m.s-1","parameterCategory":1,"la1":30.2991,"la2":30.254,"lo1":-89.0895,"lo2":-89.0444,"dy":0.0017,"dx":0.0017,"nx":28,"ny":28,"refTime":"2023-10-23T21:00:00:Z","depth":0,"parameterNumber":3,"parameterNumberName":"V-component_of_WINDS"},"data":[0,0,0,0,0,0,0,0,0,0,0,0,0,0,0,0,0,0,0,0,0,0,0,0,0,0,0,0,0,0,0,0,0,0,0,0,0,0,0,0,0,0,0,0,0,0,0,0,0,0,0,0,0,0,0,0,0,0,2.2265,2.2265,0,2.2279,2.228,2.228,2.2361,2.2363,2.2365,2.2367,2.2375,2.2373,2.2371,0,0,0,0,0,0,0,0,0,0,0,0,0,2.2302,2.2301,2.2265,2.2265,2.2265,2.2279,2.228,2.228,2.2361,2.2363,2.2366,2.2368,2.2375,2.2373,2.2371,0,0,0,0,0,0,0,0,0,0,0,0,0,2.2298,2.23,2.2265,2.2308,2.2312,2.2279,2.228,2.228,2.236,2.2363,2.2366,2.2369,2.2376,2.2373,2.2371,2.2296,0,0,2.2363,2.2362,0,0,0,0,0,0,0,0,2.2298,2.2296,2.2301,2.2305,2.2309,2.2322,2.2296,2.2285,2.236,2.2342,2.2367,2.2371,2.2354,2.2354,2.235,2.2297,2.2297,2.2363,2.2362,2.2361,2.236,0,0,0,0,0,0,0,2.2298,2.2296,2.2271,2.2301,2.2306,2.2324,2.2327,2.2294,2.2331,2.2343,2.2349,2.235,2.2357,2.2352,2.235,2.2297,2.2363,2.2361,2.236,2.2359,2.2185,2.2182,0,0,0,0,0,0,2.2293,2.2296,2.227,2.2271,2.2311,2.2321,2.2324,2.2315,2.2332,2.2337,2.2348,2.2354,2.2355,2.2353,2.2351,2.2265,2.2361,2.2358,2.2357,2.2188,2.2184,2.218,0,0,0,0,0,0,2.2294,2.229,2.227,2.2285,2.2284,2.2318,2.2306,2.2313,2.2309,2.2335,2.2341,2.2336,2.2357,2.2354,2.231,2.2267,2.2357,2.2355,2.2191,2.2186,2.2182,2.2093,0,0,0,0,0,0,2.2294,2.229,2.2263,2.2284,2.2283,2.223,2.2303,2.2311,2.2305,2.2313,2.2326,2.2331,2.2359,2.2313,2.2308,2.2265,2.2353,2.2195,2.2189,2.2184,2.21,2.2085,2.2073,0,0,0,0,0,2.2295,2.2236,2.2261,2.2258,2.225,2.2227,2.2226,2.2262,2.2301,2.2274,2.2291,2.233,2.2273,2.2308,2.2302,2.2258,2.2198,2.2191,2.2184,2.2105,2.2088,2.2074,0,0,0,0,0,0,2.2206,2.2239,2.2268,2.2214,2.2217,2.2241,2.2207,2.2243,2.2233,2.2241,2.2284,2.2286,2.2235,2.2242,2.2281,2.2187,2.2242,2.2234,2.2184,2.2168,2.2155,2.2154,2.2351,0,0,0,0,0,2.218,2.2161,2.219,2.2139,2.214,2.2173,2.2164,2.2192,2.2196,2.2198,2.2212,2.2213,2.2195,2.2182,2.2167,2.2102,2.2105,2.2068,2.2055,2.2044,2.2036,2.2002,2.1986,2.2157,2.2157,2.2157,0,0,2.2126,2.2142,2.2126,2.2121,2.2128,2.2105,2.2174,2.2146,2.2129,2.2193,2.2153,2.2163,2.2167,2.2111,2.2088,2.2116,2.199,2.2035,2.2026,2.2024,2.1993,2.1977,2.1962,2.2152,2.2153,2.2154,0,0,2.2016,2.2026,2.1985,2.1991,2.2,2.2023,2.2013,2.2032,2.2042,2.2003,2.2051,2.203,2.1999,2.2,2.1996,2.1888,2.1924,2.1882,2.1813,2.1779,2.1766,2.1754,2.1715,2.1701,2.1874,2.1874,2.1874,0,2.1946,2.1916,2.1959,2.1929,2.1925,2.1985,2.1943,2.1945,2.1948,2.1943,2.1976,2.1939,2.1945,2.1891,2.1865,2.186,2.1849,2.188,2.1765,2.1753,2.1743,2.1706,2.1692,2.1869,2.1869,2.187,2.187,0,2.183,2.1808,2.1774,2.1779,2.1771,2.1735,2.1771,2.1757,2.1786,2.1805,2.1764,2.1775,2.1764,2.1753,2.1779,2.1703,2.172,2.1758,2.1813,2.1721,2.1687,2.1673,2.1861,2.1863,2.1864,2.1866,0,0,2.1662,2.1693,2.1679,2.1683,2.1698,2.1681,2.1648,2.1639,2.1627,2.1627,2.1599,2.1572,2.1608,2.1604,2.1631,2.1601,2.1515,2.1643,2.1644,2.1618,2.1431,2.1402,2.1385,2.154,2.1537,2.1535,2.1431,0,2.1557,2.1504,2.1542,2.1481,2.1461,2.1518,2.1489,2.1494,2.1511,2.1496,2.1514,2.1494,2.1543,2.1541,2.1514,2.1531,2.1478,2.1539,2.1512,2.1511,2.1509,2.1368,2.1337,2.1238,2.1418,2.1416,2.1414,0,2.1426,2.1424,2.1362,2.1383,2.1376,2.1349,2.1345,2.133,2.1337,2.1351,2.1347,2.1383,2.135,2.1406,2.136,2.1401,2.1393,2.1399,2.1396,2.1394,2.1456,2.1361,2.1207,2.1192,2.1394,2.1395,2.1397,0,2.131,2.1291,2.1252,2.1252,2.1276,2.1256,2.1264,2.1275,2.1267,2.1263,2.1259,2.1249,2.1244,2.1235,2.1267,2.1305,2.1217,2.1275,2.1226,2.1225,2.1204,2.1205,2.1046,2.12,2.12,2.12,2.12,0,2.1187,2.1147,2.12,2.1175,2.1132,2.1176,2.1131,2.1145,2.1154,2.1132,2.118,2.1158,2.1201,2.1183,2.1207,2.1166,2.1163,2.1173,2.1179,2.1168,2.1167,2.1162,2.1169,2.1196,2.1197,2.1198,2.1199,0,2.1049,2.1083,2.1044,2.1071,2.1076,2.1043,2.1065,2.1042,2.1064,2.1035,2.1031,2.1063,2.1045,2.1076,2.106,2.1077,2.1019,2.1037,2.1017,2.1022,2.0972,2.0976,2.0803,2.0782,2.095,2.0948,2.0947,0,2.0969,2.094,2.0964,2.0954,2.0961,2.0944,2.0938,2.0979,2.097,2.0977,2.0954,2.094,2.0931,2.0899,2.0919,2.0908,2.0925,2.0865,2.0923,2.0913,2.0924,2.0925,2.0922,2.0853,2.0851,2.0849,2.0848,0,2.0822,2.0841,2.0832,2.0828,2.082,2.0818,2.082,2.0808,2.0852,2.084,2.0823,2.0816,2.0802,2.0787,2.0781,2.0788,2.0824,2.083,2.0818,2.0805,2.0795,2.08,2.0984,2.0833,2.0835,2.0836,2.0837,2.0837,2.071,2.0687,2.0701,2.0689,2.0695,2.0696,2.0677,2.0697,2.0684,2.0678,2.0703,2.068,2.0688,2.0684,2.0687,2.0669,2.0695,2.0678,2.0673,2.0668,2.066,2.0799,2.0668,2.0668,2.0669,2.0669,2.067,0,2.0566,2.0579,2.0567,2.0569,2.0559,2.0598,2.0602,2.059,2.0571,2.0576,2.0568,2.0548,2.0534,2.0555,2.0544,2.0526,2.0542,2.0521,2.0523,2.0524,2.0637,2.0649,2.0508,2.0508,2.0508,2.0508,2.0508,2.0508,2.049,2.0453,2.0474,2.044,2.0452,2.0433,2.0431,2.0432,2.0437,2.0414,2.0404,2.0418,2.043,2.0421,2.0409,2.0416,2.0409,2.0382,2.0394,2.05,2.0515,2.053,2.0541,2.0381,2.0381,2.0282,2.0281,2.028]}]]